Austin, TX

3:48 AM CST on December 06, 2016 (GMT -0600)
Austin Bergstrom International

Weather History for KAUS - October, 2012

Change the Weather History Date:

Monday, October 8, 2012

  Actual Average Record
Temperature  
Mean Temperature 60 °F 72 °F  
Max Temperature 70 °F 85 °F 96 °F (1990)
Min Temperature 50 °F 58 °F 44 °F (2000)
Degree Days  
Heating Degree Days 5 1  
Month to date heating degree days 17 7  
Since 1 July heating degree days 17 9  
Cooling Degree Days 0 7  
Month to date cooling degree days 36 65  
Year to date cooling degree days 2914 2593  
Growing Degree Days 10 (Base 50)    
Moisture  
Dew Point 45 °F    
Average Humidity 66    
Maximum Humidity 86    
Minimum Humidity 45    
Precipitation  
Precipitation 0.00 in 0.12 in 4.38 in (1994)
Month to date precipitation T 0.86  
Year to date precipitation 33.46 26.11  
Snow  
Snow 0.00 in - - ()
Month to date snowfall 0.0  
Since 1 July snowfall 0.0  
Since 1 September snowfall 0.0  
Snow Depth 0.00 in    
Sea Level Pressure  
Sea Level Pressure 30.18 in    
Wind  
Wind Speed 7 mph (NNE)    
Max Wind Speed 15 mph    
Max Gust Speed 17 mph    
Visibility 10 miles    
Events      
T = Trace of Precipitation, MM = Missing Value Source: NWS Daily Summary

Daily Weather History Graph

Daily Weather History Graph

Search for Another Location

Airport or City:

Trip Planner

Search our weather history database for the weather conditions in past years. The results will help you decide how hot, cold, wet, or windy it might be!

Date:

Astronomy

Oct. 08, 2012 Rise Set
Actual Time 7:28 AM CDT 7:07 PM CDT
Civil Twilight 7:04 AM CDT 7:31 PM CDT
Nautical Twilight 6:36 AM CDT 7:58 PM CDT
Astronomical Twilight 6:08 AM CDT 8:26 PM CDT
Moon 12:37 AM CDT (10/8) 2:31 PM CDT (10/8)
Length of Visible Light 12h 26m
Length of Day
11h 38m
Last Quarter, 46% of the Moon is Illuminated
Oct 8
Last Quarter
Oct 15
New
Oct 21
First Quarter
Oct 29
Full
Nov 6
Last Quarter

Hourly Weather History & Observations

Time (CDT) Temp. Dew Point Humidity Pressure Visibility Wind Dir Wind Speed Gust Speed Precip Events Conditions
12:53 AM 53.1 °F 39.0 °F 59% 30.22 in 10.0 mi NNE 11.5 mph - 0.00 in   Overcast
1:53 AM 53.1 °F 39.0 °F 59% 30.22 in 10.0 mi NNE 8.1 mph - N/A   Overcast
2:53 AM 51.1 °F 39.9 °F 66% 30.23 in 10.0 mi NNE 9.2 mph - N/A   Overcast
3:53 AM 51.1 °F 39.9 °F 66% 30.22 in 10.0 mi North 6.9 mph - N/A   Overcast
4:53 AM 51.1 °F 39.9 °F 66% 30.21 in 10.0 mi North 9.2 mph - N/A   Overcast
5:53 AM 51.1 °F 41.0 °F 68% 30.22 in 10.0 mi NNE 9.2 mph - N/A   Overcast
6:53 AM 51.1 °F 42.1 °F 71% 30.23 in 10.0 mi North 10.4 mph - N/A   Overcast
7:53 AM 51.1 °F 42.1 °F 71% 30.25 in 10.0 mi North 11.5 mph - N/A   Overcast
8:53 AM 52.0 °F 42.1 °F 69% 30.25 in 10.0 mi NNE 10.4 mph - N/A   Overcast
9:53 AM 54.0 °F 43.0 °F 66% 30.26 in 10.0 mi NNE 9.2 mph - N/A   Overcast
10:53 AM 55.9 °F 43.0 °F 62% 30.25 in 10.0 mi North 10.4 mph - N/A   Overcast
11:53 AM 59.0 °F 44.1 °F 58% 30.24 in 10.0 mi North 6.9 mph - N/A   Overcast
12:53 PM 61.0 °F 45.0 °F 56% 30.21 in 10.0 mi NE 6.9 mph - N/A   Mostly Cloudy
1:53 PM 64.0 °F 46.0 °F 52% 30.17 in 10.0 mi North 8.1 mph - N/A   Mostly Cloudy
2:53 PM 68.0 °F 46.9 °F 47% 30.12 in 10.0 mi NNE 9.2 mph - N/A   Scattered Clouds
3:53 PM 68.0 °F 48.0 °F 49% 30.10 in 10.0 mi Variable 3.5 mph - N/A   Partly Cloudy
4:53 PM 69.1 °F 48.9 °F 49% 30.09 in 10.0 mi Variable 4.6 mph - N/A   Scattered Clouds
5:53 PM 68.0 °F 48.9 °F 50% 30.09 in 10.0 mi ENE 3.5 mph - N/A   Scattered Clouds
6:53 PM 66.9 °F 50.0 °F 54% 30.08 in 10.0 mi Calm Calm - N/A   Scattered Clouds
7:53 PM 60.1 °F 51.1 °F 72% 30.09 in 10.0 mi Calm Calm - N/A   Scattered Clouds
8:53 PM 57.0 °F 51.1 °F 81% 30.10 in 10.0 mi South 3.5 mph - N/A   Scattered Clouds
9:53 PM 57.0 °F 52.0 °F 83% 30.10 in 10.0 mi South 5.8 mph - N/A   Scattered Clouds
10:53 PM 55.9 °F 51.1 °F 84% 30.09 in 10.0 mi South 4.6 mph - N/A   Scattered Clouds
11:53 PM 55.0 °F 51.1 °F 86% 30.09 in 10.0 mi South 4.6 mph - N/A   Mostly Cloudy